TimeMDT,TemperatureF,Dew PointF,Humidity,Sea Level PressureIn,VisibilityMPH,Wind Direction,Wind SpeedMPH,Gust SpeedMPH,PrecipitationIn,Events,Conditions,WindDirDegrees,DateUTC
12:53 AM,64.9,37.0,36,29.90,10.0,North,5.8,-,N/A,,Clear,10,2014-07-25 06:53:00
1:53 AM,64.9,33.1,31,29.89,10.0,NE,3.5,-,N/A,,Clear,50,2014-07-25 07:53:00
2:53 AM,63.0,33.1,33,29.88,10.0,North,6.9,-,N/A,,Clear,350,2014-07-25 08:53:00
3:53 AM,61.0,30.9,32,29.89,10.0,NNE,6.9,-,N/A,,Clear,20,2014-07-25 09:53:00
4:53 AM,60.1,30.9,33,29.89,10.0,North,3.5,-,N/A,,Clear,10,2014-07-25 10:53:00
5:53 AM,57.9,37.9,47,29.91,10.0,SW,6.9,-,N/A,,Clear,220,2014-07-25 11:53:00
6:53 AM,61.0,36.0,39,29.92,10.0,SW,5.8,-,N/A,,Clear,230,2014-07-25 12:53:00
7:53 AM,64.9,37.9,37,29.92,10.0,Calm,Calm,-,N/A,,Clear,0,2014-07-25 13:53:00
8:53 AM,64.0,39.9,41,29.91,10.0,SSW,9.2,-,N/A,,Clear,200,2014-07-25 14:53:00
9:53 AM,69.1,37.0,31,29.89,10.0,SW,9.2,-,N/A,,Clear,230,2014-07-25 15:53:00
10:53 AM,71.6,35.6,27,29.97,10.0,Variable,4.6,-,N/A,,Clear,0,2014-07-25 16:53:00
11:53 AM,78.1,37.0,23,29.85,10.0,Variable,6.9,-,N/A,,Clear,0,2014-07-25 17:53:00
12:53 PM,80.1,35.1,20,29.83,10.0,SW,10.4,-,N/A,,Clear,220,2014-07-25 18:53:00
1:53 PM,82.9,35.1,18,29.81,10.0,WSW,11.5,-,N/A,,Clear,240,2014-07-25 19:53:00
2:53 PM,86.0,32.0,14,29.78,10.0,WSW,11.5,23.0,N/A,,Clear,240,2014-07-25 20:53:00
3:53 PM,89.1,28.9,12,29.77,10.0,WNW,19.6,24.2,N/A,,Clear,290,2014-07-25 21:53:00
5:53 PM,88.0,28.9,12,29.78,10.0,North,17.3,-,N/A,,Clear,350,2014-07-25 23:53:00
6:53 PM,84.9,27.0,12,29.79,10.0,North,21.9,-,N/A,,Clear,360,2014-07-26 00:53:00
7:53 PM,82.0,28.9,14,29.81,10.0,North,16.1,-,N/A,,Clear,350,2014-07-26 01:53:00
8:53 PM,78.1,30.9,18,29.84,10.0,North,10.4,-,N/A,,Clear,350,2014-07-26 02:53:00
9:53 PM,73.9,30.9,21,29.88,10.0,NNW,9.2,-,N/A,,Clear,340,2014-07-26 03:53:00
10:53 PM,72.0,28.9,20,29.90,10.0,NNW,11.5,-,N/A,,Clear,340,2014-07-26 04:53:00
11:53 PM,70.0,28.9,22,29.92,10.0,North,3.5,-,N/A,,Clear,350,2014-07-26 05:53:00